FW9698 Weather Reports


Display with metric or nautical units.
time (UTC)temp
F
wind
direction
speed
MPH
gust
MPH
rain 1hr
in
rain 24hr
in
rain mn
in
humidity
%
barometer
mb
20260506123125 51 5 2.0 5.0 0.00 0.00 0.00 69 1015.4
20260506122223 51 12 2.0 5.0 0.00 0.00 0.00 70 1015.5
20260506121224 51 11 1.0 5.0 0.00 0.00 0.00 70 1015.4
20260506120322 51 360 1.0 3.0 0.00 0.00 0.00 71 1015.0
20260506114325 51 350 2.0 6.0 0.00 0.00 0.00 71 1014.8
20260506114226 51 360 3.0 5.0 0.00 0.00 0.00 71 1014.7
20260506113323 51 360 1.0 3.0 0.00 0.00 0.00 71 1014.6
20260506112340 52 3 2.0 4.0 0.00 0.00 0.00 70 1014.5
20260506110523 52 14 2.0 5.0 0.00 0.00 0.00 69 1014.7
20260506105623 52 345 1.0 3.0 0.00 0.00 0.00 68 1014.6
20260506104623 52 353 2.0 5.0 0.00 0.00 0.00 68 1014.4
20260506103623 53 350 2.0 4.0 0.00 0.00 0.00 67 1014.2
20260506102625 53 347 2.0 4.0 0.00 0.00 0.00 66 1014.0
20260506101623 53 358 2.0 3.0 0.00 0.00 0.00 64 1014.3
20260506100625 53 358 2.0 4.0 0.00 0.00 0.00 65 1013.7
20260506094626 54 7 2.0 5.0 0.00 0.00 0.00 64 1013.4
20260506093723 54 2 2.0 5.0 0.00 0.00 0.00 62 1013.5
20260506091724 54 11 2.0 4.0 0.00 0.00 0.00 61 1013.1
20260506090725 54 360 0.0 3.0 0.00 0.00 0.00 62 1013.3
20260506085724 54 344 1.0 3.0 0.00 0.00 0.00 60 1013.1
20260506084723 54 360 0.0 3.0 0.00 0.00 0.00 60 1013.2
20260506083822 54 347 2.0 3.0 0.00 0.00 0.00 61 1013.0
20260506082824 54 360 1.0 3.0 0.00 0.00 0.00 60 1012.7
20260506081922 54 352 2.0 4.0 0.00 0.00 0.00 59 1012.8
20260506080923 54 348 2.0 5.0 0.00 0.00 0.00 59 1013.0
20260506073041 55 8 1.0 3.0 0.00 0.00 0.00 57 1012.7
20260506072023 55 356 1.0 4.0 0.00 0.00 0.00 56 1012.8
20260506071024 55 360 1.0 2.0 0.00 0.00 0.00 57 1013.0
20260506062023 56 360 1.0 3.0 0.00 0.00 0.00 56 1013.3
20260506051126 57 358 2.0 5.0 0.00 0.00 0.00 60 1013.2
20260506050123 57 182 0.0 3.0 0.00 0.00 0.00 60 1013.0
20260506045125 57 337 2.0 5.0 0.00 0.00 0.00 59 1013.1
20260506044125 57 355 3.0 4.0 0.00 0.00 0.00 60 1013.0
20260506043126 57 12 3.0 6.0 0.00 0.00 0.00 60 1013.1
20260506042225 58 350 2.0 4.0 0.00 0.00 0.00 61 1013.1
20260506041225 58 352 2.0 4.0 0.00 0.00 0.00 61 1012.9
20260506040325 58 335 1.0 4.0 0.00 0.00 0.00 60 1012.9
20260506035343 58 360 1.0 5.0 0.00 0.00 0.00 60 1012.9
20260506034326 59 351 2.0 4.0 0.00 0.00 0.00 61 1012.9
20260506034224 59 1 3.0 5.0 0.00 0.00 0.00 61 1012.9
20260506033227 59 349 1.0 3.0 0.00 0.00 0.00 60 1012.7
20260506032226 60 350 2.0 4.0 0.00 0.00 0.00 61 1012.6
20260506031225 60 347 2.0 4.0 0.00 0.00 0.00 60 1012.6
20260506025327 61 360 1.0 4.0 0.00 0.00 0.00 62 1011.8
20260506024328 61 360 0.0 3.0 0.00 0.00 0.00 62 1011.6
20260506023326 61 340 2.0 5.0 0.00 0.00 0.00 63 1011.3
20260506022325 61 359 3.0 5.0 0.00 0.00 0.00 62 1011.1
20260506015426 62 347 3.0 5.0 0.00 0.00 0.00 61 1010.8
20260506013524 63 338 2.0 5.0 0.00 0.00 0.00 62 1010.5
20260506012526 64 7 3.0 10.0 0.00 0.00 0.00 62 1010.1
20260506011624 64 345 3.0 4.0 0.00 0.00 0.00 63 1009.6
20260506010627 65 336 3.0 5.0 0.00 0.00 0.00 62 1009.6
20260506005625 66 5 3.0 6.0 0.00 0.00 0.00 63 1009.4
20260506004725 67 340 3.0 7.0 0.00 0.00 0.00 60 1009.1
20260506003725 68 348 2.0 5.0 0.00 0.00 0.00 60 1008.8
20260506002743 68 311 1.0 4.0 0.00 0.00 0.00 60 1008.9
20260506001726 68 318 2.0 5.0 0.00 0.00 0.00 61 1008.9
20260506000740 69 326 2.0 6.0 0.00 0.00 0.00 60 1009.1
20260505234726 70 360 3.0 6.0 0.00 0.00 0.00 59 1008.5
20260505233741 71 354 4.0 7.0 0.00 0.00 0.00 58 1008.8
20260505231825 74 295 4.0 10.0 0.00 0.00 0.00 56 1008.5
20260505230825 75 332 3.0 5.0 0.00 0.00 0.00 59 1008.2
20260505225827 75 322 3.0 7.0 0.00 0.00 0.00 58 1007.8
20260505224825 76 299 4.0 8.0 0.00 0.00 0.00 56 1008.2
20260505222824 77 312 3.0 7.0 0.00 0.00 0.00 55 1007.4
20260505220926 79 298 4.0 8.0 0.00 0.00 0.00 47 1006.8
20260505215925 80 307 3.0 5.0 0.00 0.00 0.00 46 1006.9
20260505214025 81 308 2.0 5.0 0.00 0.00 0.00 43 1006.8
20260505213025 82 313 1.0 3.0 0.00 0.00 0.00 42 1007.0
20260505212025 83 286 3.0 4.0 0.00 0.00 0.00 40 1007.2
20260505211024 84 306 4.0 9.0 0.00 0.00 0.00 41 1007.0
20260505210025 87 286 5.0 8.0 0.00 0.00 0.00 47 1007.0
20260505205025 87 280 2.0 4.0 0.00 0.00 0.00 47 1007.0
20260505204025 86 296 2.0 6.0 0.00 0.00 0.00 49 1007.0
20260505203025 86 319 3.0 9.0 0.00 0.00 0.00 53 1006.9
20260505202026 86 223 2.0 3.0 0.00 0.00 0.00 54 1006.9
20260505201026 85 166 2.0 4.0 0.00 0.00 0.00 54 1006.9
20260505200042 84 96 1.0 4.0 0.00 0.00 0.00 53 1006.9
20260505195123 84 143 2.0 5.0 0.00 0.00 0.00 53 1007.2
20260505194126 84 194 1.0 4.0 0.00 0.00 0.00 57 1007.2
20260505193224 83 195 0.0 1.0 0.00 0.00 0.00 54 1007.2
20260505192225 82 308 1.0 5.0 0.00 0.00 0.00 53 1007.1
20260505191225 83 71 1.0 4.0 0.00 0.00 0.00 51 1007.0
20260505190225 83 150 2.0 5.0 0.00 0.00 0.00 51 1006.8
20260505185227 84 283 2.0 5.0 0.00 0.00 0.00 55 1006.8
20260505184323 82 50 1.0 4.0 0.00 0.00 0.00 53 1006.7
20260505183343 82 140 3.0 7.0 0.00 0.00 0.00 54 1006.7
20260505182425 81 148 2.0 5.0 0.00 0.00 0.00 54 1007.0
20260505181524 81 129 3.0 6.0 0.00 0.00 0.00 57 1007.1
20260505180526 80 318 2.0 6.0 0.00 0.00 0.00 59 1007.0
20260505175525 80 155 3.0 7.0 0.00 0.00 0.00 59 1007.1
20260505174526 79 166 1.0 4.0 0.00 0.00 0.00 62 1007.1
20260505173524 79 179 0.0 2.0 0.00 0.00 0.00 60 1006.8
20260505172623 78 153 2.0 6.0 0.00 0.00 0.00 61 1006.7
20260505171625 78 145 2.0 3.0 0.00 0.00 0.00 61 1006.8
20260505170625 77 130 4.0 7.0 0.00 0.00 0.00 61 1006.6
20260505165724 77 143 4.0 10.0 0.00 0.00 0.00 62 1006.8
20260505164725 77 161 1.0 4.0 0.00 0.00 0.00 62 1006.8
20260505163725 77 155 3.0 7.0 0.00 0.00 0.00 63 1006.5
20260505161725 76 138 1.0 6.0 0.00 0.00 0.00 62 1006.7
20260505151825 76 141 4.0 9.0 0.00 0.00 0.00 62 1006.7
20260505150923 76 124 3.0 8.0 0.00 0.00 0.00 64 1006.7
20260505130124 72 137 3.0 6.0 0.00 0.00 0.00 67 1006.1
20260505124125 71 136 0.0 8.0 0.00 0.00 0.00 67 1006.0